Hourly Data Report for October 02, 2017

All times are specified in Local Standard Time (LST). Add 1 hour to adjust for Daylight Saving Time where and when it is observed.

PRINCE RUPERT
BRITISH COLUMBIA

54°17'10.000" N
130°26'41.000" W
35.40 m
1066482
71022
YPR

Download Data

Hourly Data (October 2017)
Hourly Data Report for October 2, 2017
Temp Definition
°C
Dew Point Temp Definition
°C
Rel Hum Definition
%
Wind Dir Definition
10's deg

Wind Spd Definition
km/h
Visibility Definition
km
Stn Press Definition
kPa
Hmdx Definition


Wind Chill Definition


Weather Definition


TIME
00:00 Legend Double Dagger 6.7 6.2 97   0 16.1 102.40     LegendNANA
01:00 Legend Double Dagger 5.8 5.2 96 LegendMM 4 16.1 102.44     LegendNANA
02:00 Legend Double Dagger 6.8 6.4 97 5 11 16.1 102.45     LegendNANA
03:00 Legend Double Dagger 6.7 6.3 97 6 15 16.1 102.48     LegendNANA
04:00 Legend Double Dagger 6.4 4.7 89 6 11 16.1 102.51     LegendNANA
05:00 Legend Double Dagger 6.6 5.0 89 7 17 16.1 102.52     LegendNANA
06:00 Legend Double Dagger 6.8 5.0 88 7 17 16.1 102.54     LegendNANA
07:00 Legend Double Dagger 6.8 4.6 86 8 13 16.1 102.56     LegendNANA
08:00 Legend Double Dagger 8.4 4.6 77 9 9 16.1 102.59     LegendNANA
09:00 Legend Double Dagger 10.1 5.7 74 7 15 16.1 102.61     LegendNANA
10:00 Legend Double Dagger 13.0 5.2 59 6 13 16.1 102.57     LegendNANA
11:00 Legend Double Dagger 15.5 1.1 38 8 15 16.1 102.50     LegendNANA
12:00 Legend Double Dagger 16.6 0.0 32 9 11 16.1 102.55     LegendNANA
13:00 Legend Double Dagger 17.7 -2.1 26 8 17 16.1 102.51     LegendNANA
14:00 Legend Double Dagger 17.4 -0.4 30 7 9 16.1 102.44     LegendNANA
15:00 Legend Double Dagger 16.9 2.5 38 27 11 16.1 102.43     LegendNANA
16:00 Legend Double Dagger 16.7 1.8 36 34 5 16.1 102.44     LegendNANA
17:00 Legend Double Dagger 15.3 5.4 51 LegendMM 4 16.1 102.40     LegendNANA
18:00 Legend Double Dagger 10.9 5.9 71 LegendMM 4 16.1 102.37     LegendNANA
19:00 Legend Double Dagger 8.9 4.5 74 7 4 16.1 102.37     LegendNANA
20:00 Legend Double Dagger 9.8 4.6 70 8 11 16.1 102.31     LegendNANA
21:00 Legend Double Dagger 9.0 4.8 75 7 9 16.1 102.30     LegendNANA
22:00 Legend Double Dagger 7.6 4.8 83 6 8 16.1 102.32     LegendNANA
23:00 Legend Double Dagger 7.1 4.5 83 6 13 16.1 102.32     LegendNANA

Notes on Data Quality.

Legend

  • E = Estimated
  • M = Missing
  • NA = Not Available
  • ‡ = Partner data that is not subject to review by the National Climate Archives
Date modified: